Simultaneous Nadir Overpasses (SNOs) Predictions

Prediction of SNOs between GOES-16 and METOP-A Satellite Orbit:

Table of predicted SNOs for the next 14.0 days since TLE Epoch: 11/13/2021
Index Date Time (GOES-16) GOES-16 Lat,Lon METOP-A Lat,Lon Distance(km) Time Diff (sec)
1 11/14/2021 00:47:49 0.01, -75.19 0.33, -73.82 156.80 80
2 11/15/2021 13:04:00 -0.01, -75.22 0.67, -78.42 364.13 80
3 11/16/2021 12:45:58 -0.01, -75.23 -0.40, -73.43 204.21 80
4 11/18/2021 01:02:17 0.00, -75.22 -0.64, -78.06 323.64 80
5 11/19/2021 00:44:16 -0.01, -75.23 0.49, -73.09 245.07 80
6 11/20/2021 13:00:25 0.02, -75.27 0.57, -77.68 274.79 80
7 11/21/2021 12:42:25 0.03, -75.28 -0.56, -72.70 294.09 80
8 11/23/2021 00:58:43 -0.03, -75.29 -0.47, -77.34 233.19 80
9 11/24/2021 00:40:42 -0.04, -75.30 0.59, -72.35 335.88 80
10 11/25/2021 12:56:52 0.04, -75.34 0.40, -76.95 183.31 80
11 11/26/2021 12:38:51 0.05, -75.36 -0.67, -71.97 386.07 80
